User: anonymous   Login
Location: Unspecified
(0.0000°N, 0.0000°E)
Time: 22:28:54
(UTC+00:00)
Language:

Skynet 4A - Orbit

View from above orbital plane
View from above orbital plane
View from above satellite
View from above satellite

Ground track
Ground track

The orbit data is extracted from the following two-line orbital elements,

1 20401U 90001A   18109.71227351 -.00000047  00000-0  00000+0 0  9995
2 20401  13.3715   9.9484 0015083 258.2412 225.0090  0.98997926 99368
Epoch (UTC): 19 April 2018 17:05:40
Eccentricity: 0.0015083
inclination: 13.3715°
perigee height: 36083 km
apogee height: 36211 km
right ascension of ascending node: 9.9484°
argument of perigee: 258.2412°
revolutions per day: 0.98997926
mean anomaly at epoch: 225.0090°
orbit number at epoch: 9936

The dashed part of the orbit path shows where the satellite is in the earth's shadow,  

DLR